Daggett-Barstow, CA

2:08 AM PDT on August 21, 2017 (GMT -0700)
Barstow-Daggett

Weather History for KDAG - April, 2014

Change the Weather History Date:

Monday, April 28, 2014

  Actual Average Record
Temperature  
Mean Temperature 68 °F 68 °F  
Max Temperature 80 °F 83 °F 98 °F (2007)
Min Temperature 57 °F 54 °F 42 °F (1970)
Degree Days  
Heating Degree Days 0    
Cooling Degree Days 4    
Growing Degree Days 18 (Base 50)    
Moisture  
Dew Point 26 °F    
Average Humidity 23    
Maximum Humidity 42    
Minimum Humidity 11    
Precipitation  
Precipitation 0.00 in 0.00 in 0.23 in (1951)
Month to date precipitation 0.16  
Year to date precipitation 1.92  
Sea Level Pressure  
Sea Level Pressure 29.98 in    
Wind  
Wind Speed 16 mph (WNW)    
Max Wind Speed 26 mph    
Max Gust Speed 32 mph    
Visibility 10 miles    
Events      
T = Trace of Precipitation, MM = Missing Value Source: NWS Daily Summary

Daily Weather History Graph

Daily Weather History Graph

Search for Another Location

Airport or City:

Trip Planner

Search our weather history database for the weather conditions in past years. The results will help you decide how hot, cold, wet, or windy it might be!

Date:

Astronomy

Apr. 28, 2014 Rise Set
Actual Time 5:59 AM PDT 7:30 PM PDT
Civil Twilight 5:32 AM PDT 7:56 PM PDT
Nautical Twilight 5:00 AM PDT 8:29 PM PDT
Astronomical Twilight 4:27 AM PDT 9:02 PM PDT
Moon 5:38 AM PDT (4/28) 7:13 PM PDT (4/28)
Length of Visible Light 14h 23m
Length of Day
13h 30m
Waning Crescent, 0% of the Moon is Illuminated
Apr 28
Waning Crescent
Apr 28
New
May 6
First Quarter
May 14
Full
May 21
Last Quarter

Hourly Weather History & Observations

Time (PDT) Temp. Dew Point Humidity Pressure Visibility Wind Dir Wind Speed Gust Speed Precip Events Conditions
12:50 AM 61.0 °F 24.1 °F 24% 29.92 in 10.0 mi WSW 20.7 mph 32.2 mph N/A   Clear
1:50 AM 60.1 °F 28.0 °F 30% 29.91 in 10.0 mi WSW 25.3 mph - N/A   Clear
2:50 AM 60.1 °F 28.9 °F 31% 29.90 in 10.0 mi WSW 23.0 mph 28.8 mph N/A   Clear
3:50 AM 59.0 °F 30.9 °F 35% 29.91 in 10.0 mi WSW 26.5 mph 31.1 mph N/A   Clear
4:50 AM 57.9 °F 34.0 °F 41% 29.92 in 10.0 mi WSW 23.0 mph - N/A   Clear
5:50 AM 57.9 °F 35.1 °F 42% 29.95 in 10.0 mi WSW 21.9 mph 27.6 mph N/A   Clear
7:50 AM 61.0 °F 34.0 °F 36% 30.01 in 10.0 mi West 16.1 mph - N/A   Clear
8:50 AM 63.0 °F 34.0 °F 34% 30.03 in 10.0 mi West 15.0 mph - N/A   Clear
9:50 AM 66.9 °F 33.1 °F 28% 30.04 in 10.0 mi West 11.5 mph - N/A   Clear
10:50 AM 68.0 °F 28.0 °F 22% 30.04 in 10.0 mi Variable 3.5 mph - N/A   Clear
11:50 AM 72.0 °F 27.0 °F 19% 30.02 in 10.0 mi ESE 4.6 mph - N/A   Clear
12:50 PM 75.0 °F 19.9 °F 13% 30.00 in 10.0 mi ENE 6.9 mph - N/A   Clear
1:50 PM 77.0 °F 19.9 °F 12% 29.99 in 10.0 mi Variable 4.6 mph - N/A   Clear
2:50 PM 79.0 °F 19.0 °F 11% 29.97 in 10.0 mi NNE 10.4 mph 16.1 mph N/A   Clear
4:50 PM 80.1 °F 21.0 °F 11% 29.94 in 10.0 mi NE 9.2 mph - N/A   Clear
5:50 PM 79.0 °F 19.0 °F 11% 29.94 in 10.0 mi ENE 8.1 mph - N/A   Clear
6:50 PM 77.0 °F 21.9 °F 13% 29.94 in 10.0 mi ENE 5.8 mph - N/A   Clear
8:50 PM 69.1 °F 21.9 °F 17% 30.00 in 10.0 mi North 3.5 mph - N/A   Clear
9:50 PM 66.9 °F 21.9 °F 18% 30.02 in 10.0 mi Calm Calm - N/A   Clear
10:50 PM 64.9 °F 21.0 °F 19% 30.04 in 10.0 mi Calm Calm - N/A   Clear
11:50 PM 64.0 °F 21.9 °F 20% 30.05 in 10.0 mi West 4.6 mph - N/A   Clear